K0FJ-1 Weather Reports


Display with metric or nautical units.
time (UTC)temp
F
wind
direction
speed
MPH
gust
MPH
rain 1hr
in
rain 24hr
in
rain mn
in
humidity
%
barometer
mb
20260502203005 70 216 4.0 11.0 0.00 0.00 0.00 28 1019.7
20260502202503 70 228 4.0 10.0 0.00 0.00 0.00 29 1019.7
20260502202003 69 280 5.0 13.0 0.00 0.00 0.00 31 1019.7
20260502201503 69 280 6.0 13.0 0.00 0.00 0.00 31 1019.8
20260502201005 70 263 4.0 11.0 0.00 0.00 0.00 28 1019.9
20260502200503 70 223 4.0 12.0 0.00 0.00 0.00 29 1019.9
20260502200003 70 241 6.0 12.0 0.00 0.00 0.00 28 1020.1
20260502195003 69 195 5.0 14.0 0.00 0.00 0.00 31 1020.1
20260502194503 68 230 4.0 11.0 0.00 0.00 0.00 31 1020.2
20260502194003 68 237 4.0 11.0 0.00 0.00 0.00 31 1020.3
20260502193505 68 230 4.0 13.0 0.00 0.00 0.00 32 1020.4
20260502193003 68 241 3.0 13.0 0.00 0.00 0.00 32 1020.5
20260502192503 68 242 4.0 12.0 0.00 0.00 0.00 32 1020.6
20260502192003 68 225 5.0 12.0 0.00 0.00 0.00 32 1020.7
20260502191003 67 179 3.0 16.0 0.00 0.00 0.00 33 1020.7
20260502190503 66 231 2.0 9.0 0.00 0.00 0.00 35 1020.9
20260502190004 66 221 4.0 11.0 0.00 0.00 0.00 34 1021.0
20260502185505 66 193 4.0 12.0 0.00 0.00 0.00 35 1021.0
20260502185003 66 177 6.0 14.0 0.00 0.00 0.00 35 1021.0
20260502184503 66 177 6.0 14.0 0.00 0.00 0.00 35 1021.1
20260502184003 65 183 6.0 14.0 0.00 0.00 0.00 36 1021.2
20260502183503 65 180 6.0 16.0 0.00 0.00 0.00 34 1021.3
20260502183003 65 176 3.0 16.0 0.00 0.00 0.00 37 1021.3
20260502182503 64 177 4.0 11.0 0.00 0.00 0.00 37 1021.5
20260502182003 64 188 4.0 11.0 0.00 0.00 0.00 35 1021.6
20260502181505 64 211 4.0 13.0 0.00 0.00 0.00 37 1021.7
20260502181003 64 198 5.0 13.0 0.00 0.00 0.00 36 1021.7
20260502180503 64 168 4.0 11.0 0.00 0.00 0.00 37 1021.8
20260502170504 61 190 5.0 14.0 0.00 0.00 0.00 41 1022.5
20260502164003 60 183 3.0 12.0 0.00 0.00 0.00 42 1022.8
20260502163505 59 155 3.0 8.0 0.00 0.00 0.00 43 1022.8
20260502163003 59 162 4.0 11.0 0.00 0.00 0.00 44 1022.8
20260502162503 59 165 3.0 11.0 0.00 0.00 0.00 44 1022.7
20260502162003 58 154 2.0 8.0 0.00 0.00 0.00 47 1022.8
20260502161505 57 167 3.0 8.0 0.00 0.00 0.00 48 1022.8
20260502161003 56 184 4.0 10.0 0.00 0.00 0.00 48 1023.0
20260502160503 56 191 5.0 10.0 0.00 0.00 0.00 48 1023.1
20260502152003 52 147 2.0 6.0 0.00 0.00 0.00 56 1023.1
20260502151503 52 156 3.0 7.0 0.00 0.00 0.00 55 1023.1
20260502151003 51 164 4.0 10.0 0.00 0.00 0.00 55 1023.1
20260502150503 51 157 4.0 10.0 0.00 0.00 0.00 55 1023.1
20260502130503 35 0 0.0 0.0 0.00 0.00 0.00 83 1023.0
20260502123503 33 209 0.0 2.0 0.00 0.00 0.00 83 1022.7
20260502123005 33 209 1.0 2.0 0.00 0.00 0.00 82 1022.7
20260502122503 33 209 0.0 2.0 0.00 0.00 0.00 83 1022.7
20260502122003 33 209 0.0 1.0 0.00 0.00 0.00 83 1022.7
20260502121503 33 0 0.0 0.0 0.00 0.00 0.00 84 1022.6
20260502121003 33 0 0.0 0.0 0.00 0.00 0.00 85 1022.6
20260502120505 34 0 0.0 0.0 0.00 0.00 0.00 85 1022.7
20260502115503 34 0 0.0 0.0 0.00 0.00 0.00 85 1022.5
20260502115003 34 0 0.0 0.0 0.00 0.00 0.00 85 1022.6
20260502114505 34 0 0.0 0.0 0.00 0.00 0.00 85 1022.6
20260502114003 34 0 0.0 0.0 0.00 0.00 0.00 85 1022.6
20260502113503 34 0 0.0 0.0 0.00 0.00 0.00 85 1022.5
20260502113003 34 0 0.0 0.0 0.00 0.00 0.00 85 1022.4
20260502112503 34 0 0.0 0.0 0.00 0.00 0.00 85 1022.4
20260502112003 34 0 0.0 0.0 0.00 0.00 0.00 85 1022.3
20260502111503 34 0 0.0 0.0 0.00 0.00 0.00 85 1022.3
20260502111003 34 0 0.0 0.0 0.00 0.00 0.00 85 1022.3
20260502110503 34 0 0.0 0.0 0.00 0.00 0.00 85 1022.4
20260502110005 34 0 0.0 0.0 0.00 0.00 0.00 85 1022.4
20260502105503 34 0 0.0 0.0 0.00 0.00 0.00 85 1022.3
20260502105003 34 0 0.0 0.0 0.00 0.00 0.00 84 1022.3
20260502104505 34 0 0.0 0.0 0.00 0.00 0.00 84 1022.4
20260502104003 34 0 0.0 0.0 0.00 0.00 0.00 84 1022.4
20260502103503 34 0 0.0 0.0 0.00 0.00 0.00 84 1022.4
20260502103003 34 0 0.0 0.0 0.00 0.00 0.00 84 1022.3
20260502102503 34 0 0.0 0.0 0.00 0.00 0.00 84 1022.3
20260502102003 34 0 0.0 0.0 0.00 0.00 0.00 83 1022.2
20260502101503 34 0 0.0 0.0 0.00 0.00 0.00 83 1022.2
20260502101005 34 0 0.0 0.0 0.00 0.00 0.00 83 1022.2
20260502100503 34 209 0.0 1.0 0.00 0.00 0.00 83 1022.1
20260502091503 36 178 0.0 1.0 0.00 0.00 0.00 79 1021.9
20260502091005 36 0 0.0 0.0 0.00 0.00 0.00 78 1021.9
20260502090504 37 0 0.0 0.0 0.00 0.00 0.00 78 1022.0
20260502071503 41 0 0.0 0.0 0.00 0.00 0.00 76 1021.9
20260502071003 41 0 0.0 0.0 0.00 0.00 0.00 76 1022.0
20260502070505 41 0 0.0 0.0 0.00 0.00 0.00 76 1021.7
20260502070005 41 0 0.0 0.0 0.00 0.00 0.00 75 1021.9
20260502065503 41 0 0.0 0.0 0.00 0.00 0.00 75 1022.0
20260502065003 42 0 0.0 0.0 0.00 0.00 0.00 74 1021.8
20260502064504 42 0 0.0 0.0 0.00 0.00 0.00 74 1022.0
20260502064003 42 0 0.0 0.0 0.00 0.00 0.00 74 1022.0
20260502063503 42 0 0.0 0.0 0.00 0.00 0.00 74 1021.8
20260502063003 42 137 0.0 1.0 0.00 0.00 0.00 73 1021.6
20260502062505 43 137 0.0 1.0 0.00 0.00 0.00 73 1021.8
20260502062003 43 137 0.0 1.0 0.00 0.00 0.00 72 1021.7
20260502061503 43 0 0.0 0.0 0.00 0.00 0.00 71 1021.5
20260502061004 44 0 0.0 0.0 0.00 0.00 0.00 71 1021.3
20260502060505 44 0 0.0 0.0 0.00 0.00 0.00 71 1021.5
20260502060003 44 0 0.0 0.0 0.00 0.00 0.00 70 1021.4
20260502055503 45 0 0.0 0.0 0.00 0.00 0.00 70 1021.4
20260502055003 45 0 0.0 0.0 0.00 0.00 0.00 69 1021.3
20260502054503 45 0 0.0 0.0 0.00 0.00 0.00 69 1021.3
20260502054003 46 0 0.0 0.0 0.00 0.00 0.00 68 1021.3
20260502053503 46 0 0.0 0.0 0.00 0.00 0.00 67 1021.2
20260502053003 46 0 0.0 0.0 0.00 0.00 0.00 67 1021.1
20260502052503 47 126 0.0 1.0 0.00 0.00 0.00 66 1021.0
20260502052003 47 167 0.0 4.0 0.00 0.00 0.00 66 1021.0
20260502051503 47 172 0.0 4.0 0.00 0.00 0.00 66 1020.8
20260502051003 47 0 0.0 0.0 0.00 0.00 0.00 66 1020.8
20260502050503 47 0 0.0 0.0 0.00 0.00 0.00 66 1020.9
20260502050004 47 0 0.0 0.0 0.00 0.00 0.00 66 1020.9
20260502045503 47 130 0.0 2.0 0.00 0.00 0.00 66 1020.8
20260502045005 47 130 0.0 2.0 0.00 0.00 0.00 66 1020.8
20260502044504 47 0 0.0 0.0 0.00 0.00 0.00 66 1020.9
20260502044003 47 0 0.0 0.0 0.00 0.00 0.00 66 1020.9
20260502043503 47 0 0.0 0.0 0.00 0.00 0.00 66 1020.9
20260502043003 47 0 0.0 0.0 0.00 0.00 0.00 65 1020.9
20260502042503 47 0 0.0 0.0 0.00 0.00 0.00 65 1020.8
20260502042003 47 0 0.0 0.0 0.00 0.00 0.00 65 1020.7
20260502041503 47 0 0.0 0.0 0.00 0.00 0.00 65 1020.7
20260502041003 47 0 0.0 0.0 0.00 0.00 0.00 64 1020.8
20260502040503 47 0 0.0 0.0 0.00 0.00 0.00 64 1020.7
20260502040003 47 0 0.0 0.0 0.00 0.00 0.00 63 1020.7
20260502035503 47 179 0.0 2.0 0.00 0.00 0.00 62 1020.7
20260502035003 48 175 0.0 2.0 0.00 0.00 0.00 62 1020.6
20260502034503 48 137 0.0 2.0 0.00 0.00 0.00 62 1020.6
20260502034003 48 123 0.0 2.0 0.00 0.00 0.00 61 1020.5
20260502033503 48 115 0.0 2.0 0.00 0.00 0.00 60 1020.5
20260502033004 48 0 0.0 0.0 0.00 0.00 0.00 60 1020.4
20260502032503 49 0 0.0 0.0 0.00 0.00 0.00 59 1020.5
20260502032003 49 0 0.0 0.0 0.00 0.00 0.00 58 1020.4
20260502031503 49 0 0.0 0.0 0.00 0.00 0.00 57 1020.3
20260502031003 50 0 0.0 0.0 0.00 0.00 0.00 57 1020.3
20260502030503 50 0 0.0 0.0 0.00 0.00 0.00 56 1020.2
20260502030004 50 0 0.0 0.0 0.00 0.00 0.00 55 1020.2
20260502025503 51 0 0.0 0.0 0.00 0.00 0.00 53 1020.1
20260502025003 51 0 0.0 0.0 0.00 0.00 0.00 52 1020.0
20260502024505 51 0 0.0 0.0 0.00 0.00 0.00 50 1019.9
20260502024003 52 0 0.0 0.0 0.00 0.00 0.00 49 1019.8
20260502023503 52 0 0.0 0.0 0.00 0.00 0.00 47 1019.8
20260502023003 53 0 0.0 0.0 0.00 0.00 0.00 45 1019.6
20260502022503 53 0 0.0 0.0 0.00 0.00 0.00 44 1019.5
20260502022003 54 0 0.0 0.0 0.00 0.00 0.00 43 1019.5
20260502021503 54 0 0.0 0.0 0.00 0.00 0.00 42 1019.3
20260502021003 55 83 0.0 1.0 0.00 0.00 0.00 41 1019.1
20260502020505 55 83 0.0 2.0 0.00 0.00 0.00 40 1019.1
20260502020003 56 87 1.0 3.0 0.00 0.00 0.00 40 1019.1
20260502015504 57 90 1.0 6.0 0.00 0.00 0.00 39 1019.1
20260502015003 57 89 2.0 6.0 0.00 0.00 0.00 38 1019.0
20260502014503 58 91 2.0 5.0 0.00 0.00 0.00 37 1019.0
20260502014003 59 87 2.0 4.0 0.00 0.00 0.00 36 1018.9
20260502013503 60 86 1.0 3.0 0.00 0.00 0.00 35 1018.8
20260502013005 60 94 1.0 4.0 0.00 0.00 0.00 34 1018.7
20260502012503 61 94 1.0 4.0 0.00 0.00 0.00 34 1018.6
20260502012003 61 89 1.0 4.0 0.00 0.00 0.00 33 1018.5
20260502011503 62 91 0.0 3.0 0.00 0.00 0.00 33 1018.5
20260502011004 62 92 0.0 3.0 0.00 0.00 0.00 33 1018.4
20260502010504 62 81 1.0 2.0 0.00 0.00 0.00 33 1018.3
20260502010003 62 90 1.0 2.0 0.00 0.00 0.00 32 1018.2
20260502005503 62 98 1.0 3.0 0.00 0.00 0.00 32 1018.2
20260502005005 61 98 1.0 3.0 0.00 0.00 0.00 33 1018.1
20260502004503 61 91 1.0 3.0 0.00 0.00 0.00 33 1018.1
20260502004003 61 56 1.0 3.0 0.00 0.00 0.00 33 1017.9
20260502003503 61 50 1.0 3.0 0.00 0.00 0.00 32 1017.9
20260502003004 61 64 1.0 4.0 0.00 0.00 0.00 33 1017.9
20260502002503 62 71 1.0 6.0 0.00 0.00 0.00 32 1017.8
20260502002003 62 69 1.0 6.0 0.00 0.00 0.00 31 1017.8
20260502001503 63 57 2.0 6.0 0.00 0.00 0.00 30 1017.7
20260502001005 63 36 2.0 7.0 0.00 0.00 0.00 29 1017.7
20260502000503 64 21 3.0 9.0 0.00 0.00 0.00 26 1017.5
20260502000003 65 5 4.0 13.0 0.00 0.00 0.00 26 1017.5
20260501235503 65 357 4.0 13.0 0.00 0.00 0.00 25 1017.5
20260501235003 65 1 3.0 10.0 0.00 0.00 0.00 24 1017.5
20260501234503 65 358 3.0 10.0 0.00 0.00 0.00 24 1017.5
20260501234003 66 351 4.0 12.0 0.00 0.00 0.00 23 1017.5
20260501233503 66 351 4.0 12.0 0.00 0.00 0.00 23 1017.5
20260501233005 66 352 4.0 9.0 0.00 0.00 0.00 23 1017.4
20260501232503 66 349 3.0 9.0 0.00 0.00 0.00 24 1017.4
20260501232003 65 3 3.0 10.0 0.00 0.00 0.00 25 1017.4
20260501231503 65 12 4.0 10.0 0.00 0.00 0.00 24 1017.4
20260501231004 66 6 4.0 14.0 0.00 0.00 0.00 24 1017.3
20260501230503 66 348 5.0 14.0 0.00 0.00 0.00 23 1017.3
20260501230003 66 329 7.0 15.0 0.00 0.00 0.00 25 1017.2
20260501225503 66 326 8.0 15.0 0.00 0.00 0.00 23 1017.2
20260501225003 67 329 5.0 15.0 0.00 0.00 0.00 24 1017.3
20260501224503 66 342 5.0 14.0 0.00 0.00 0.00 25 1017.2
20260501224003 66 355 5.0 14.0 0.00 0.00 0.00 26 1017.3
20260501223503 65 1 4.0 9.0 0.00 0.00 0.00 26 1017.2
20260501223003 66 357 4.0 15.0 0.00 0.00 0.00 25 1017.2
20260501222503 66 351 6.0 16.0 0.00 0.00 0.00 25 1017.2
20260501222003 66 352 7.0 16.0 0.00 0.00 0.00 24 1017.3
20260501221503 66 4 5.0 16.0 0.00 0.00 0.00 25 1017.3
20260501221003 67 3 5.0 16.0 0.00 0.00 0.00 26 1017.3
20260501220503 67 325 6.0 16.0 0.00 0.00 0.00 25 1017.2
20260501220003 66 314 9.0 17.0 0.00 0.00 0.00 26 1017.3
20260501215503 66 329 8.0 17.0 0.00 0.00 0.00 24 1017.4
20260501215003 66 343 6.0 13.0 0.00 0.00 0.00 25 1017.4
20260501214505 67 341 5.0 14.0 0.00 0.00 0.00 25 1017.5
20260501214003 67 327 6.0 14.0 0.00 0.00 0.00 26 1017.5
20260501213505 67 328 7.0 14.0 0.00 0.00 0.00 24 1017.6
20260501213005 66 340 6.0 15.0 0.00 0.00 0.00 25 1017.6
20260501212505 66 330 6.0 15.0 0.00 0.00 0.00 25 1017.6
20260501212003 66 313 6.0 14.0 0.00 0.00 0.00 25 1017.7
20260501211503 68 312 6.0 12.0 0.00 0.00 0.00 26 1017.7
20260501211005 67 332 6.0 13.0 0.00 0.00 0.00 26 1017.7
20260501210503 67 339 7.0 15.0 0.00 0.00 0.00 25 1017.8
20260501210005 66 336 7.0 15.0 0.00 0.00 0.00 26 1017.7
20260501205503 66 321 6.0 11.0 0.00 0.00 0.00 26 1017.8
20260501205003 66 321 5.0 13.0 0.00 0.00 0.00 26 1017.8
20260501204503 66 334 6.0 19.0 0.00 0.00 0.00 27 1017.9
20260501204003 65 339 7.0 19.0 0.00 0.00 0.00 25 1018.2
20260501203503 66 344 6.0 14.0 0.00 0.00 0.00 26 1018.1